Location: Unspecified
(58.9933°N, 5.6375°E)
Time: 13:07:30
(UTC+01:00)

Resurs 1-4 Rocket - Visible Passes

Search period start: 23 November 2014 00:00
Search period end: 03 December 2014 00:00
Orbit: 800 x 815 km, 98.4° (Epoch: 22 November)

Date Brightness Start Highest point End Pass type
(mag) Time Alt. Az. Time Alt. Az. Time Alt. Az.
23 Nov 4.4 03:19:57 10° NE 03:23:44 20° E 03:23:47 20° E visible
23 Nov 2.0 04:59:07 10° NNE 05:04:27 83° ESE 05:04:52 75° SSE visible
23 Nov 3.0 06:39:29 10° N 06:43:52 27° NW 06:45:56 21° W visible
24 Nov 4.8 02:56:19 10° NE 02:58:52 14° E 02:58:52 14° E visible
24 Nov 2.5 04:34:42 10° NNE 04:39:56 58° ESE 04:39:57 58° ESE visible
24 Nov 2.6 06:14:52 10° N 06:19:39 36° WNW 06:21:02 31° W visible
24 Nov 3.8 07:56:01 10° N 07:58:14 13° NW 08:00:26 10° WNW visible
25 Nov 3.2 04:10:21 10° NNE 04:15:03 40° E 04:15:03 40° E visible
25 Nov 2.2 05:50:18 10° N 05:55:22 49° WNW 05:56:07 46° W visible
25 Nov 3.6 07:31:06 10° N 07:34:13 16° NW 07:37:12 10° WNW visible
25 Nov 4.9 17:23:33 10° WSW 17:26:24 15° W 17:29:16 10° NW visible
26 Nov 3.9 03:46:07 10° NNE 03:50:09 28° E 03:50:09 28° E visible
26 Nov 1.9 05:25:46 10° NNE 05:31:01 69° WNW 05:31:13 68° W visible
26 Nov 3.3 07:06:20 10° N 07:10:08 21° NW 07:12:18 16° WNW visible
26 Nov 4.7 16:57:38 10° SW 17:01:34 21° W 17:05:31 10° NW visible
27 Nov 4.4 03:22:03 10° NE 03:25:15 20° ENE 03:25:15 20° ENE visible
27 Nov 2.0 05:01:17 10° NNE 05:06:20 81° NE 05:06:20 81° NE visible
27 Nov 3.0 06:41:40 10° N 06:45:59 27° NW 06:47:24 23° WNW visible
28 Nov 4.8 02:58:21 10° NE 03:00:21 14° ENE 03:00:21 14° ENE visible
28 Nov 2.6 04:36:51 10° NNE 04:41:26 56° ENE 04:41:26 56° ENE visible
28 Nov 2.6 06:17:02 10° N 06:21:47 35° NW 06:22:31 33° WNW visible
28 Nov 3.9 07:58:15 10° N 08:00:20 12° NNW 08:02:24 10° WNW visible
29 Nov 3.3 04:12:29 10° NNE 04:16:33 39° ENE 04:16:33 39° ENE visible
29 Nov 2.3 05:52:27 10° N 05:57:30 48° WNW 05:57:38 47° WNW visible
29 Nov 3.6 07:33:18 10° N 07:36:19 16° NW 07:38:43 12° WNW visible
29 Nov 4.9 17:25:55 10° WSW 17:28:36 14° W 17:31:17 10° NW visible
30 Nov 3.9 03:48:14 10° NNE 03:51:40 27° ENE 03:51:40 27° ENE visible
30 Nov 2.1 05:27:55 10° NNE 05:32:45 64° NW 05:32:45 64° NW visible
30 Nov 3.4 07:08:31 10° N 07:12:14 20° NW 07:13:50 17° WNW visible
30 Nov 4.7 16:59:55 10° SW 17:03:45 20° W 17:07:36 10° NW visible
01 Dec 4.4 03:24:08 10° NE 03:26:48 19° ENE 03:26:48 19° ENE visible
01 Dec 2.3 05:03:25 10° NNE 05:07:52 64° NNE 05:07:52 64° NNE visible
01 Dec 3.0 06:43:50 10° N 06:48:06 26° NW 06:48:57 25° WNW visible
01 Dec 4.3 16:34:28 10° SSW 16:39:00 28° W 16:43:32 10° NNW visible
02 Dec 4.8 03:00:23 10° NE 03:01:55 14° ENE 03:01:55 14° ENE visible
02 Dec 2.8 04:38:59 10° NNE 04:43:00 49° NE 04:43:00 49° NE visible
02 Dec 2.7 06:19:12 10° N 06:23:54 34° NW 06:24:05 34° WNW visible
02 Dec 3.9 08:00:28 10° N 08:02:25 12° NNW 08:04:22 10° NW visible
